Baseball 板


LINE

打者翔平 https://i.imgur.com/UccuhQB.jpg ┌──┬─┬─┬─┬──┬─┬─┬─┬─┬─┬───┐ │ AVG│AB│ R│ H│ RBI│2B│3B│HR│BB│ K│ OPS │ ├──┼─┼─┼─┼──┼─┼─┼─┼─┼─┼───┤ │.307│ 4│ 1│ 1│ 1 │ 0│ 0│ 0│ 1│ 0│1.078 │ └──┴─┴─┴─┴──┴─┴─┴─┴─┴─┴───┘ 第一打席: 1B (EV:82.2 mph) 第二打席: FO (EV:97 mph) 第三打席: FO (EV:109.1 mph) 第四打席: GO (EV:105.9 mph) 第五打席: IBB 第一打席打出帶有打點的穿越安打 其他打擊機會擊球初速都不錯,可惜仰角不是太高就是太低 第五打席被敬遠保送,一上壘馬上盜上二壘(16) 最終天使7:5打敗巨人,中止連敗 明天投手大谷將出賽面對巨人 加油啦 - 大 谷翔平 https://i.imgur.com/h30n6VB.jpg --



※ 發信站: 批踢踢實業坊(ptt.cc), 來自: 180.217.130.47 (臺灣)
※ 文章網址: https://webptt.com/m.aspx?n=bbs/Baseball/M.1691554528.A.A2B.html
1F:→ ssss06: 贏了!!!!!!! 08/09 12:15
2F:推 cplzgr: 明天gogo 08/09 12:15
3F:推 pinky841118: 明天加油啊! 08/09 12:15
4F:推 Ferrari360: 明天10勝+41轟吧 08/09 12:16
5F:推 botbotbot: 加油 08/09 12:16
6F:推 nanamiiwill: 終於 08/09 12:16
7F:推 nwg2k562: 卡彈了 08/09 12:16
8F:推 Jaguarsu: 明天開轟+10勝ok吧 08/09 12:16
9F:→ jiaxie: 笑死出局,助理就長打 08/09 12:16
10F:推 lmf770410: 一直IBB 08/09 12:16
11F:推 Aurora5566: 明天加油! 08/09 12:16
12F:推 edhuang: 沒集到氣但幾乎都有了 明天加油 08/09 12:16
13F:推 Jerry7766: 水槍翔平 08/09 12:16
14F:推 wi90527: 明天加油! 08/09 12:16
15F:推 devil157: A大回來了 08/09 12:17
16F:推 polanco: 明天加油啦 08/09 12:17
17F:噓 ggbi4zzz: 休息吧!拜託 08/09 12:17
18F:推 starry3170: 明天加油! 08/09 12:17
19F:→ yankees733: 天使今天贏 季後賽機率上升了吧 08/09 12:17
20F:推 yangtsur: 拜託明天勝投 08/09 12:17
21F:推 kentket: 今天靠朱莉啦 繼續 08/09 12:17
22F:推 WasJohnWall: 水槍翔平 08/09 12:17
23F:推 yaki049: 投手大谷明天加油 08/09 12:17
24F:推 doa2: 今年10勝50轟就夠了,反正天使扶不起 08/09 12:17
25F:推 piaolz: 明天加油! 08/09 12:17
26F:推 killua0209: 有安打的初速最低 08/09 12:18
27F:→ BaRanKa: 亞洲之光 10勝+42轟 08/09 12:18
28F:推 pounil: HR不行了 08/09 12:18
29F:推 TonyGonsolin: 明天勝投+雙響 08/09 12:18
30F:→ b99202071: 唉 連敗沒了 08/09 12:18
31F:→ Adiakyan: 這樣是不是又給內文信心大增加了 08/09 12:18
32F:推 acnb: 感動 08/09 12:19
33F:推 sony0223098: 內文:季後賽來了 08/09 12:19
34F:推 JimK0511: Olson >>>>>>>> 08/09 12:19
35F:推 immence: 小水槍 08/09 12:20
36F:推 myeunji: 覺得會9勝40轟結束今年賽季 08/09 12:20
37F:推 sixsix666: 內瓜:我們要打季後賽惹 08/09 12:21
38F:推 henry1915: Ops持續降落 08/09 12:21
39F:推 peter6666712: 希望別再抽筋了 08/09 12:21
40F:推 daisyung: 翔平小水槍 08/09 12:21
41F:推 avcddd: 終於靠我們谷神終止七連敗 08/09 12:22
42F:推 a2350221: 健康就好 大谷加油 08/09 12:22
43F:推 ZIQQ001: 笑死 打不出全壘ㄉㄚ 08/09 12:22
44F:推 lafeelbarth: 士氣大振 08/09 12:22
45F:推 gn01948540: 水槍平 08/09 12:23
46F:推 JazMaHoJo: 能撐幾局不抽筋 08/09 12:23
47F:推 chyng1202: 16連戰太累了啦 休息一下就有HR了 初速都還在 08/09 12:24
48F:推 kickvsbrad: 天使信癢 季後賽不是夢 08/09 12:24
49F:推 ak478998: 止敗小小開心 08/09 12:25
50F:推 Derp: MVP好涼 08/09 12:25
51F:→ AhCheng: 沒轟笑死 08/09 12:28
52F:→ killua0209: Olson除了打點贏外,其他都輸吧?! 08/09 12:29
53F:推 s155260: 小水槍 08/09 12:29
54F:推 Getbackers: 每天一安,公務員化 08/09 12:30
55F:推 sixsix666: 剛剛看升到1.6%了,狂賀宇宙猴要來了,大家抓穩了 08/09 12:30
56F:推 huangjyuan: 明天巨人先發還沒排出來喔 假先發? 08/09 12:30
57F:推 a39208491: 強 08/09 12:30
58F:推 kim: 一直不給他休真的莫名奇妙,除了這場之外前面也七 08/09 12:31
59F:→ kim: 連敗,操成這樣有什麼用 08/09 12:31
60F:推 bob621024: 終於贏 08/09 12:31
61F:推 marx93521: 笑死卡彈還是要IBB 08/09 12:33
62F:推 yuan0119: 又給內文希望了,大谷準備天天出賽了 08/09 12:33
63F:推 Zeitgeist: 一波連勝要開始了嗎 08/09 12:35
64F:推 h1y2c3y2h1: 看來內文要的極限還沒到 繼續操 08/09 12:36
65F:推 FatZiiiii: 卡彈有點久了喔 08/09 12:36
66F:推 jonwei: 明天加油! 08/09 12:38
67F:→ YDSK: 贏一場就爽成這樣… 08/09 12:40
68F:推 halfmonster: 明天差不多該雙響砲了 08/09 12:41
69F:推 youngpaper: 天使一生懸命哈哈哈 08/09 12:42
70F:推 lookers: 本人說累還不是不給休還想推責任啊 08/09 12:44
71F:推 a7788783: 直江準備好了 08/09 12:44
72F:推 KKwilliam: 十月就休息了 沒事的 08/09 12:49
73F:推 ils0104: 明天投球加油!健康就好 08/09 12:50
74F:推 RaverIan: 讚喔 季後賽還是沒你的份 08/09 12:50
75F:推 activeactive: 明天加油!!! 08/09 12:52
76F:→ koj: 笑死,打完一安就開始混了,還好球隊贏球 08/09 12:56
77F:推 pottr50911: 15勝54轟結束賽季 08/09 12:58
78F:→ OneSong: 低於1%才贏喔 08/09 13:03
79F:推 ayachyan: 開始拼20-20 08/09 13:08
80F:推 benlinskyin: 笑死 沒K 08/09 13:10
81F:推 twtpcsilence: 笑死 又沒轟出去 08/09 13:17
82F:推 hornets1221: 開始一波連勝 08/09 13:25
83F:推 Krishna: 我沒K 布魯biu 布魯biu 08/09 13:36
84F:推 RicFlair: 水槍翔平笑死 08/09 13:38
85F:推 sfw0199: 笑死 不會打全壘打 08/09 13:53
86F:推 nihow78: 快連轟 拼50 08/09 14:04
87F:推 kauw: 變成水槍了 08/09 14:11
88F:推 joewang85: 槍平 08/09 14:26
89F:推 pop810227: 50轟15勝然去道奇 別再浪費時間了 08/09 14:39
90F:推 manygod: 完封 三響砲 我就吃麥當勞 08/09 14:49
91F:→ killua0209: 明天巨人又是假先發 08/09 14:54
92F:推 kauw: 最近都有球打比較多但轟不出去也沒辦法 08/09 14:59
93F:→ jim272272: 一朗化 08/09 15:03
94F:推 payneblue: 最近咬得扎實但也飛不遠 是不是太操勞了 08/09 15:03
95F:推 northlight: 我谷加油 08/09 15:08
96F:→ killua0209: 提早開機打WBC,開季至今又只休2場,當然累壞了 08/09 15:17
97F:推 usoko: 好好休息好嗎 08/09 15:22
98F:推 yaieki: 能一直健健康康打球比較重要 08/09 15:32
99F:→ flicker36: 終於 08/09 15:39
100F:推 wenfei: 笑死公務員 08/09 16:33
101F:推 ScotchWhisky: 笑死 敢不敢明天雙響加勝投啦 08/09 17:37
102F:推 helacell: 大谷明天加油~ 08/09 18:10
103F:推 Daniel0712: 笑死沒全壘打 08/09 21:46
104F:推 lhi0417: 加油吧! 08/09 23:09
105F:→ Brucetk: 今天還有盜壘勒 08/09 23:21







like.gif 您可能會有興趣的文章
icon.png[問題/行為] 貓晚上進房間會不會有憋尿問題
icon.pngRe: [閒聊] 選了錯誤的女孩成為魔法少女 XDDDDDDDDDD
icon.png[正妹] 瑞典 一張
icon.png[心得] EMS高領長版毛衣.墨小樓MC1002
icon.png[分享] 丹龍隔熱紙GE55+33+22
icon.png[問題] 清洗洗衣機
icon.png[尋物] 窗台下的空間
icon.png[閒聊] 双極の女神1 木魔爵
icon.png[售車] 新竹 1997 march 1297cc 白色 四門
icon.png[討論] 能從照片感受到攝影者心情嗎
icon.png[狂賀] 賀賀賀賀 賀!島村卯月!總選舉NO.1
icon.png[難過] 羨慕白皮膚的女生
icon.png閱讀文章
icon.png[黑特]
icon.png[問題] SBK S1安裝於安全帽位置
icon.png[分享] 舊woo100絕版開箱!!
icon.pngRe: [無言] 關於小包衛生紙
icon.png[開箱] E5-2683V3 RX480Strix 快睿C1 簡單測試
icon.png[心得] 蒼の海賊龍 地獄 執行者16PT
icon.png[售車] 1999年Virage iO 1.8EXi
icon.png[心得] 挑戰33 LV10 獅子座pt solo
icon.png[閒聊] 手把手教你不被桶之新手主購教學
icon.png[分享] Civic Type R 量產版官方照無預警流出
icon.png[售車] Golf 4 2.0 銀色 自排
icon.png[出售] Graco提籃汽座(有底座)2000元誠可議
icon.png[問題] 請問補牙材質掉了還能再補嗎?(台中半年內
icon.png[問題] 44th 單曲 生寫竟然都給重複的啊啊!
icon.png[心得] 華南紅卡/icash 核卡
icon.png[問題] 拔牙矯正這樣正常嗎
icon.png[贈送] 老莫高業 初業 102年版
icon.png[情報] 三大行動支付 本季掀戰火
icon.png[寶寶] 博客來Amos水蠟筆5/1特價五折
icon.pngRe: [心得] 新鮮人一些面試分享
icon.png[心得] 蒼の海賊龍 地獄 麒麟25PT
icon.pngRe: [閒聊] (君の名は。雷慎入) 君名二創漫畫翻譯
icon.pngRe: [閒聊] OGN中場影片:失蹤人口局 (英文字幕)
icon.png[問題] 台灣大哥大4G訊號差
icon.png[出售] [全國]全新千尋侘草LED燈, 水草

請輸入看板名稱,例如:Boy-Girl站內搜尋

TOP